STARLINK-32465, 61716

Orbit data source: Space-Track

STARLINK-32465, 61716 is a payload satellite owned by SpaceX/Seattle (US) in LEO that was launched on Wed, 30 Oct 2024 UTC via an FALCON 9 launch vehicle from the Air Force Eastern Test Range (AFETR). Payload-class satellites include a variety of spacecraft equipped with specific instruments for various scientific and technological missions. These include communications satellites like Starlink; space stations such as the ISS; scientific satellites like the Hubble; Earth observation satellites from companies like Planet Labs, Umbra, and HawkEye 360; GPS; miniature CubeSats for education and research; and military/defense satellites.

Loading next visibility...
Identifier
61716, 2024-196K
Orbit
LEO
Country
Flag of USUS
Related business
Manufacturer
SpaceX/Seattle
Mission
Operational Commercial Communications
Bus & Motor
STARLINK V2M, Unknown motor
Mass
730 kg wet, ~700 kg dry
Launch date (UTC)
2024-10-30 (1 year ago)
Launch vehicle
FALCON 9
Launch site
Air Force Eastern Test Range (AFETR)
Object type
Payload
Rocket body
Debris
Shape & HBR
Box + 2 Pan, 17.7 m
Radar Cross Section
33.884 m², Large (>1 m²)

Expand to show TLE details & history
Last TLE update: 12 hours ago

TLE from 12 hours ago
0 STARLINK-32465
1 61716U 24196K   26062.55651447 -.00000353  00000-0  20802-6 0  9996
2 61716  53.1574 130.1084 0001014  84.3760 275.7357 15.30196143 76214
Epoch: 2026-03-03T13:21Z
TLE epoch observation values (Epoch: 2026-03-03T13:21:22.850Z)
Latitude
0.00005°
Longitude
128.42935°
Altitude
476.057 km
Speed
7.629 km/s
True Right ascension
08h 40m 26s
True Declination
0° 00' 00"
Sunlit
Object was in full shadow at epoch
Visualization orbit readout
Latitude
Unknown
Longitude
Unknown
Altitude
Unknown
Speed
Unknown
Apparent Right ascension
Unknown
Apparent Declination
Unknown
Sunlit
N/A
Visualization observer readout
Local Sidereal Time
04:55:36
Azimuth
Unknown
Elevation
Unknown
Doppler factor
Unknown
Orbital elements
Apogee altitude
476.178 km
Perigee altitude
474.788 km
Semi-major axis
6,853.62 km
Eccentricity
0.0001
Inclination
53.1574°
RAAN
130.1084°
Arg. of periapsis
84.376°
True anomaly
275.72414°
Mean anomaly
275.7357°
Eccentric anomaly
275.72992°
Mean motion
3.82528 °/min
Orbital period
94.11 mins
BSTAR
2.0802e-7
Loading maneuver chart data...
Computing Atmospheric mass density...
Loading historical data...
Loading historical data...
Loading historical data...
Loading historical data...
Loading historical data...
Loading historical data...
Loading historical data...

Documentation

Showing up to 5 results
|